Flag for U.S.A. Weather past 2 weeks in Washington DC, District of Columbia, U.S.A.

Now
76 °F

Overcast.


Feels Like: 77 °F
Forecast: 70 / 80 °F
Wind: 7 mph from Southeast

Location: Reagan National Airport

Current Time: Aug 23, 2014 at 1:58:12 AM

Latest Report: Aug 23, 2014 at 12:52 AM


Visibility: 10 mi

Pressure: 30.01 "Hg

Humidity: 77%

Dew point: 68 °F

Location of Washington DCLocation

Historic Weather in Washington DC — Graph

°F

Washington DC temperature yesterday

Maximum temperature yesterday: 82 °F (at 3:52 PM)
Minimum temperature yesterday: 74 °F (at 5:52 AM)
Average temperature yesterday: 78 °F

Past Weeks' High & Low Weather Summary

 TemperatureHumidityPressure
High89 °F (Aug 20, 2:52 PM)89% (Aug 12, 10:59 AM)30.15 "Hg (Aug 12, 10:59 AM)
Low63 °F (Aug 15, 5:52 AM)27% (Aug 15, 2:52 PM)29.75 "Hg (Aug 13, 4:52 AM)
Average77 °F60%29.98 "Hg
* Reported Aug 8 12:52 AM — Aug 23 12:52 AM, Washington DC, Weather by CustomWeather, © 2014

Note: Actual official high and low records may vary slightly from our data, if they occured in-between our weather recording intervals... More about our weather records

Advertising

Washington DC weather history for previous 24 hours

 ConditionsComfort  
Time TempWeatherWind HumidityBarometerVisibility
12:52 AM
Aug 23
76 °FOvercast.7 mph77%30.01 "Hg10 mi
11:52 PM
Aug 22
76 °FMostly cloudy.5 mph77%30.01 "Hg10 mi
10:52 PM76 °FOvercast.3 mph80%30.00 "Hg10 mi
9:52 PM77 °FMostly cloudy.6 mph77%30.00 "Hg10 mi
9:04 PM79 °FPassing clouds.7 mph74%29.99 "Hg10 mi
8:52 PM78 °FScattered clouds.6 mph74%29.98 "Hg10 mi
7:52 PM79 °FBroken clouds.9 mph72%29.96 "Hg10 mi
6:52 PM81 °FMore clouds than sun.9 mph65%29.96 "Hg8 mi
5:52 PM82 °FBroken clouds.3 mph67%29.96 "Hg8 mi
4:52 PM81 °FLight rain. Cloudy.10 mph69%29.96 "Hg7 mi
3:52 PM82 °FCloudy.No wind65%29.96 "Hg9 mi
2:58 PM81 °FCloudy.3 mph70%29.98 "Hg8 mi
1:52 PM81 °FLight rain. Cloudy.No wind67%29.99 "Hg8 mi
12:52 PM80 °FCloudy.3 mph69%29.99 "Hg8 mi
11:52 AM79 °FLight rain. More clouds than sun.6 mph72%30.00 "Hg9 mi
10:52 AM79 °FLight rain. More clouds than sun.7 mph72%30.00 "Hg10 mi
9:52 AM80 °FPartly sunny.8 mph67%30.00 "Hg10 mi
8:52 AM79 °FBroken clouds.8 mph69%30.01 "Hg10 mi
7:52 AM76 °FOvercast.8 mph72%30.01 "Hg10 mi
6:52 AM74 °FPartly cloudy.7 mph76%29.98 "Hg10 mi
5:52 AM74 °FPassing clouds.6 mph76%29.97 "Hg10 mi
4:52 AM75 °FPassing clouds.5 mph74%29.96 "Hg10 mi
3:52 AM76 °FPartly cloudy.3 mph69%29.96 "Hg10 mi
2:52 AM77 °FPassing clouds.3 mph69%29.97 "Hg10 mi
1:52 AM77 °FPassing clouds.5 mph71%29.98 "Hg10 mi
Weather by CustomWeather, © 2014

See weather overviewHow to use our weather pages